This is the latest recevied weather packets stored in our database for station/object PD2BVG. If no packets are shown the sender has not sent any weather packets the latest 10 day(s).
| Time | Temp. | Humidity | Pressure | Rain* | Wind** | Luminosity | Snow |
|---|---|---|---|---|---|---|---|
| 1788075357 | 18.33° C | 92% | 1010 hPa | 0 mm | - | 62 W/m² | - |
| 1788075298 | 18.33° C | 92% | 1010 hPa | 0 mm | - | 120 W/m² | - |
| 1788075237 | 18.33° C | 93% | 1009.9 hPa | 0 mm | - | 120 W/m² | - |
| 1788075178 | 18.33° C | 93% | 1010 hPa | 0 mm | - | 107 W/m² | - |
| 1788075119 | 18.33° C | 93% | 1010 hPa | 0 mm | - | 92 W/m² | - |
| 1788075058 | 18.33° C | 92% | 1009.9 hPa | 0 mm | - | 100 W/m² | - |
| 1788074998 | 18.33° C | 93% | 1009.9 hPa | 0 mm | - | 111 W/m² | - |
| 1788074937 | 18.33° C | 93% | 1009.9 hPa | 0 mm | - | 99 W/m² | - |
| 1788074878 | 18.33° C | 93% | 1009.8 hPa | 0 mm | - | 88 W/m² | - |
| 1788074817 | 18.33° C | 93% | 1009.9 hPa | 0 mm | - | 70 W/m² | - |
| 1788074757 | 18.33° C | 93% | 1009.9 hPa | 0 mm | - | 70 W/m² | - |
| 1788074697 | 18.33° C | 92% | 1009.8 hPa | 0 mm | - | 60 W/m² | - |
| 1788074638 | 18.33° C | 92% | 1009.8 hPa | 0 mm | - | 60 W/m² | - |
| 1788074577 | 18.33° C | 92% | 1009.8 hPa | 0 mm | - | 60 W/m² | - |
| 1788074518 | 18.33° C | 92% | 1009.8 hPa | 0 mm | - | 55 W/m² | - |
| 1788074459 | 18.33° C | 93% | 1009.8 hPa | 0 mm | - | 49 W/m² | - |
| 1788074397 | 18.33° C | 93% | 1009.8 hPa | 0 mm | - | 49 W/m² | - |
| 1788074337 | 18.33° C | 93% | 1009.7 hPa | 0 mm | - | 42 W/m² | - |
| 1788074277 | 18.33° C | 93% | 1009.6 hPa | 0 mm | - | 35 W/m² | - |
| 1788074217 | 18.33° C | 93% | 1009.7 hPa | 0 mm | - | 53 W/m² | - |
| 1788074158 | 18.33° C | 93% | 1009.8 hPa | 0 mm | - | 48 W/m² | - |
| 1788074099 | 18.33° C | 93% | 1009.7 hPa | 0 mm | - | 48 W/m² | - |
| 1788074039 | 18.33° C | 93% | 1009.5 hPa | 0 mm | - | 48 W/m² | - |
| 1788073980 | 18.33° C | 94% | 1009.6 hPa | 0 mm | - | 51 W/m² | - |
| 1788073916 | 18.33° C | 94% | 1009.6 hPa | 0 mm | - | 51 W/m² | - |
* Rain latest hour (hover to see other rain measurements)
** Current wind speed in m/s (hover to see current wind gust speed)